Fort Wayne, IN

11:11 AM EDT on August 23, 2019 (GMT -0400)
Fort Wayne International

Weather History for KFWA - June, 2019

Change the Weather History Date:

Saturday, June 1, 2019

  Actual Average Record
Temperature  
Mean Temperature 73 °F 66 °F  
Max Temperature 84 °F 77 °F 101 °F (1934)
Min Temperature 61 °F 55 °F 38 °F (1993)
Degree Days  
Heating Degree Days 0 3  
Month to date heating degree days 0 3  
Since 1 June heating degree days 0 3  
Since 1 July heating degree days 5847 6075  
Cooling Degree Days 8 3  
Month to date cooling degree days 8 3  
Year to date cooling degree days 76 60  
Since 1 June cooling degree days 8 3  
Growing Degree Days 22 (Base 50)    
Moisture  
Dew Point 62 °F    
Average Humidity 71    
Maximum Humidity 90    
Minimum Humidity 51    
Precipitation  
Precipitation 0.24 in 0.16 in 2.82 in (1980)
Month to date precipitation 0.24 0.16  
Year to date precipitation 18.11 14.96  
Snow  
Snow 0.00 in 0.00 in 0.00 in (2002)
Month to date snowfall 0.0 0.0  
Since 1 June snowfall 0.0 0.0  
Since 1 July snowfall 24.7 33.5  
Snow Depth 0.00 in    
Sea Level Pressure  
Sea Level Pressure 29.79 in    
Wind  
Wind Speed 12 mph (SW)    
Max Wind Speed 30 mph    
Max Gust Speed 41 mph    
Visibility 9 miles    
Events Rain , Thunderstorm    
T = Trace of Precipitation, MM = Missing Value Source: NWS Daily Summary

Daily Weather History Graph

Daily Weather History Graph

Search for Another Location

Airport or City:

Astronomy

Jun. 01, 2019 Rise Set
Actual Time 6:11 AM EDT 9:06 PM EDT
Civil Twilight 5:38 AM EDT 9:39 PM EDT
Nautical Twilight 4:56 AM EDT 10:21 PM EDT
Astronomical Twilight 4:08 AM EDT 11:09 PM EDT
Moon 5:16 AM EDT (6/1) 7:17 PM EDT (6/1)
Length of Visible Light 16h 01m
Length of Day
14h 55m
Waning Crescent, 4% of the Moon is Illuminated
Jun 1
Waning Crescent
Jun 3
New
Jun 10
First Quarter
Jun 17
Full
Jun 25
Last Quarter

Hourly Weather History & Observations

Time (EDT) Temp. Heat Index Dew Point Humidity Pressure Visibility Wind Dir Wind Speed Gust Speed Precip Events Conditions
12:54 AM 64.9 °F - 60.1 °F 84% 29.86 in 10.0 mi SW 6.9 mph - N/A   Mostly Cloudy
1:54 AM 64.0 °F - 59.0 °F 84% 29.84 in 10.0 mi SW 6.9 mph - N/A   Mostly Cloudy
2:54 AM 64.9 °F - 59.0 °F 81% 29.83 in 10.0 mi WSW 8.1 mph - N/A   Scattered Clouds
3:54 AM 64.9 °F - 59.0 °F 81% 29.85 in 10.0 mi WSW 8.1 mph - N/A   Mostly Cloudy
4:54 AM 62.1 °F - 57.9 °F 86% 29.85 in 10.0 mi SW 4.6 mph - N/A   Mostly Cloudy
5:54 AM 61.0 °F - 57.9 °F 90% 29.85 in 10.0 mi South 3.5 mph - N/A   Mostly Cloudy
6:54 AM 61.0 °F - 57.9 °F 90% 29.86 in 10.0 mi SSW 6.9 mph - N/A   Mostly Cloudy
7:54 AM 64.9 °F - 61.0 °F 87% 29.86 in 10.0 mi SW 9.2 mph - N/A   Mostly Cloudy
8:54 AM 70.0 °F - 62.1 °F 76% 29.85 in 10.0 mi SW 11.5 mph - N/A   Mostly Cloudy
9:54 AM 72.0 °F - 63.0 °F 73% 29.84 in 10.0 mi SW 15.0 mph - N/A   Overcast
10:54 AM 73.9 °F - 63.0 °F 68% 29.83 in 10.0 mi SW 13.8 mph - N/A   Overcast
11:54 AM 78.1 °F - 64.9 °F 64% 29.83 in 10.0 mi SW 15.0 mph - N/A   Overcast
12:54 PM 81.0 °F 82.7 °F 64.9 °F 58% 29.81 in 10.0 mi WSW 15.0 mph 25.3 mph N/A   Mostly Cloudy
1:54 PM 82.0 °F 83.4 °F 64.0 °F 54% 29.79 in 10.0 mi SW 19.6 mph - N/A   Overcast
2:54 PM 82.9 °F 85.0 °F 66.0 °F 56% 29.77 in 10.0 mi West 16.1 mph - N/A   Mostly Cloudy
3:54 PM 82.0 °F 83.4 °F 64.0 °F 54% 29.76 in 9.0 mi WSW 17.3 mph 26.5 mph N/A   Mostly Cloudy
4:54 PM 84.0 °F 85.4 °F 64.0 °F 51% 29.74 in 10.0 mi WSW 18.4 mph - N/A   Mostly Cloudy
5:54 PM 82.0 °F 83.1 °F 63.0 °F 52% 29.73 in 10.0 mi SW 20.7 mph 28.8 mph N/A   Mostly Cloudy
6:54 PM 81.0 °F 81.9 °F 62.1 °F 52% 29.73 in 10.0 mi WSW 17.3 mph 29.9 mph N/A   Mostly Cloudy
7:54 PM 79.0 °F - 62.1 °F 56% 29.72 in 10.0 mi SW 11.5 mph 23.0 mph N/A   Mostly Cloudy
8:54 PM 75.0 °F - 62.1 °F 64% 29.71 in 10.0 mi SSW 9.2 mph - N/A Thunderstorm Mostly Cloudy
9:22 PM 75.0 °F - 63.0 °F 66% 29.72 in 10.0 mi SSW 11.5 mph - 0.00 in Rain , Thunderstorm Light Thunderstorms and Rain
9:54 PM 73.9 °F - 64.0 °F 71% 29.70 in 10.0 mi SW 15.0 mph - 0.02 in Thunderstorm Thunderstorm
10:32 PM 68.0 °F - 60.1 °F 76% 29.73 in 9.0 mi North 21.9 mph 38.0 mph N/A Thunderstorm Thunderstorm
10:43 PM 64.9 °F - 60.1 °F 84% 29.76 in 1.8 mi ENE 12.7 mph 39.1 mph 0.00 in Rain , Thunderstorm Thunderstorms and Rain
10:54 PM 64.0 °F - 60.1 °F 87% 29.76 in 4.0 mi ENE 6.9 mph 26.5 mph 0.20 in Rain , Thunderstorm Light Thunderstorms and Rain
11:34 PM 64.0 °F - 61.0 °F 90% 29.80 in 6.0 mi Calm Calm - 0.01 in Rain Light Rain
11:54 PM 64.0 °F - 61.0 °F 90% 29.77 in 10.0 mi NE 3.5 mph - 0.02 in Rain Light Rain